Regional Weather Roundup
Issued by NWS Grand Forks, ND

Home | Current Version | Previous Version | Text Only | Print | Product List | Glossary On
Versions: 1 2 3 4 5 6 7 8 9 10 11 12 13 14 15 16 17 18 19 20 21 22 23 24 25 26 27 28 29 30 31 32 33 34 35 36 37 38 39 40 41 42 43 44 45 46 47 48 49 50
000
ASUS43 KFGF 210031
RWRFGF
PRAIRIE TO PINES  WEATHER ROUNDUP
NATIONAL WEATHER SERVICE EASTERN NORTH DAKOTA/GRAND FORKS ND
700 PM CDT FRI OCT 20 2017

 **SATELLITE DATA USED TO AUGMENT SKY COVER AT AUTOMATED STATIONS**
 *****  WEATHER ACROSS EASTERN NORTH DAKOTA  *****

CITY           SKY/WX    TMP DP  RH WIND       PRES   REMARKS
GRAND FORKS    MOCLDY    73  55  53 S17G26    29.36F
6HR MIN TEMP:  73; 6HR MAX TEMP:  79;

GRAND FRKS AFB FAIR      70  52  53 SE14      29.35F
DEVILS LAKE    FAIR      65  51  60 S16       29.31S
6HR MIN TEMP:  65; 6HR MAX TEMP:  71;

FARGO          FAIR      72  54  53 S18G31    29.43S
WAHPETON ARPT  NOT AVBL
$$

 ***** WEATHER ACROSS CENTRAL AND WESTERN NORTH DAKOTA  *****

CITY           SKY/WX    TMP DP  RH WIND       PRES   REMARKS
BISMARCK       FAIR      71  50  47 S10       29.28S
6HR MIN TEMP:  70; 6HR MAX TEMP:  77;

MINOT          FAIR      69  44  40 SE8       29.22S
6HR MIN TEMP:  68; 6HR MAX TEMP:  80;

JAMESTOWN      FAIR      71  53  52 S18G31    29.34F
6HR MIN TEMP:  68; 6HR MAX TEMP:  73;

MINOT AFB      FAIR      65  39  39 S10       29.21R
GARRISON         N/A     67  48  50 SE10      29.24S
WILLISTON      CLEAR     70  39  32 NE2       29.18F
DICKINSON      FAIR      66  37  34 S7        29.20F
6HR MIN TEMP:  66; 6HR MAX TEMP:  81;

HETTINGER      FAIR      71  35  26 S12       29.26S
6HR MIN TEMP:  71; 6HR MAX TEMP:  84;

$$

 *****  OTHER AIRPORT OBSERVATIONS IN OUR AREA  *****

CITY           SKY/WX    TMP DP  RH WIND       PRES   REMARKS
WALHALLA       FAIR     N/A N/A N/A S10G18    29.32S
GRAFTON AIRPOR FAIR      68  52  56 SE12      29.37S
VALLEY CITY AR FAIR      70  55  60 S17G28    29.39S
CANDO          FAIR      63  50  63 SE12      29.32R
CAVALIER APRT  FAIR      70  54  56 S18G24    29.32S
GWINNER        CLEAR     70  54  56 S17G23    29.43R
SHEYENNE NWR     N/A     70  54  57 S14       29.95S
ROLLA          FAIR      64  48  55 S14       29.30R
 ***** THE ABOVE OBSERVATIONS ARE NON NWS ARE NOT QUALITY
       CONTROLLED AND MAY MIS-REPORT RAIN FOR SNOW...
$$

  *****  WEATHER ACROSS NORTHERN MINNESOTA  *****

CITY           SKY/WX    TMP DP  RH WIND       PRES   REMARKS
FLAG ISLAND    FAIR      57  48  72 S21       29.45R
WARROAD        FAIR      70  55  60 S14G20    29.46R
ROSEAU         FAIR      73  55  53 S14       29.44R
HALLOCK        FAIR      72  52  49 S18       29.36S
THF RVR FALLS  FAIR      71  53  52 S21       29.45S
6HR MIN TEMP:  71; 6HR MAX TEMP:  79;

BAUDETTE       FAIR      70  50  49 SE13G23   29.50S
6HR MIN TEMP:  69; 6HR MAX TEMP:  79;

WASKISH        FAIR      70  52  52 S13G23    29.53R
CROOKSTON      FAIR      72  54  53 S24G31    29.41S
STEPHEN NDAWN    N/A     72  52  49 S13         N/A
GREENBUSH NDAW   N/A     70  52  52 S14         N/A
$$
  *****  WEATHER ACROSS CENTRAL AND WEST MINNESOTA  *****

CITY           SKY/WX    TMP DP  RH WIND       PRES   REMARKS
FOSSTON        FAIR      70  48  46 S18G29    29.49R
BEMIDJI        FAIR      69  50  51 S14G20    29.54S
6HR MIN TEMP:  69; 6HR MAX TEMP:  76;

PARK RAPIDS    FAIR      71  52  50 S18G25    29.56S
6HR MIN TEMP:  70; 6HR MAX TEMP:  75; 6HR PCP: TRACE;

ELBOW LAKE     FAIR      68  53  59 S16G22    29.54R
6HR MIN TEMP:  68; 6HR MAX TEMP:  75;

WADENA         FAIR      70  52  52 S16G22    29.56S
DETROIT LAKES  FAIR      70  50  49 S14       29.54R
MOORHEAD       FAIR      70  54  56 SE17G24   29.46R
FERGUS FALLS   FAIR      70  54  56 S20G26    29.52R
MORRIS MN      FAIR      66  54  63 S10       29.55R
STAPLES        FAIR      70  48  46 S14G23    29.59S
$$
  *****  WEATHER ELSEWHERE ACROSS MINNESOTA  *****

CITY           SKY/WX    TMP DP  RH WIND       PRES   REMARKS
DULUTH         FAIR      62  47  57 SE9       29.72S
6HR MIN TEMP:  62; 6HR MAX TEMP:  75;

INTRNTL FALLS  FAIR      71  47  42 S9G17     29.56F
6HR MIN TEMP:  71; 6HR MAX TEMP:  79;

ELY            FAIR      66  45  45 S8        29.69S
CLOQUET        FAIR      70  39  32 SE6       29.71S
WHEATON        FAIR      72  52  49 S14G23    29.52R
BRAINERD       FAIR      70  48  45 S14G25    29.63S
6HR MIN TEMP:  69; 6HR MAX TEMP:  74;

HIBBING        FAIR      67  45  45 S7        29.66S
6HR MIN TEMP:  67; 6HR MAX TEMP:  74;

ALEXANDRIA     FAIR      70  51  51 S17       29.59S
6HR MIN TEMP:  68; 6HR MAX TEMP:  77;

SAINT CLOUD    FAIR      69  47  45 SE14      29.66S
6HR MIN TEMP:  69; 6HR MAX TEMP:  77;

MINNEAPOLIS    MOCLDY    71  46  40 S15G22    29.73S
6HR MIN TEMP:  71; 6HR MAX TEMP:  78;

$$

  *****  WEATHER ACROSS SOUTH DAKOTA  *****

CITY           SKY/WX    TMP DP  RH WIND       PRES   REMARKS
SIOUX FALLS    MOCLDY    72  59  63 S22G29    29.59R
6HR MIN TEMP:  72; 6HR MAX TEMP:  77;

BROOKINGS      FAIR      69  56  62 S18       29.56S
WATERTOWN      FAIR      68  54  60 S23G33    29.52R
6HR MIN TEMP:  67; 6HR MAX TEMP:  73;

HURON          FAIR      72  55  55 S15G24    29.46S
6HR MIN TEMP:  72; 6HR MAX TEMP:  77;

SISSETON         N/A     72  55  55 S18       29.47R
ABERDEEN       FAIR      71  55  56 S20       29.42R
6HR MIN TEMP:  67; 6HR MAX TEMP:  79;

MITCHELL       CLOUDY    74  56  53 S18G28    29.50S
PIERRE         FAIR      69  53  56 SE14G25   29.38R
6HR MIN TEMP:  69; 6HR MAX TEMP:  81;

MOBRIDGE       FAIR      72  53  51 S16       29.30R
RAPID CITY     FAIR      70  36  28 W7        29.34R
6HR MIN TEMP:  70; 6HR MAX TEMP:  84;

$$

  *****  SOME WEATHER IN NEARBY STATES *****

CITY           SKY/WX    TMP DP  RH WIND       PRES   REMARKS
GLASGOW MT     FAIR      67  30  25 W13       29.18R
6HR MIN TEMP:  63; 6HR MAX TEMP:  75;

GREAT FALLS MT CLOUDY    44  33  65 W12       29.53R
6HR MIN TEMP:  43; 6HR MAX TEMP:  62; 6HR PCP:  0.01;

CHEYENNE WY    FAIR      65  30  27 S9        29.57F
6HR MIN TEMP:  65; 6HR MAX TEMP:  73;

SCOTTSBLUFF NE FAIR      71  34  25 S6        29.44F
6HR MIN TEMP:  67; 6HR MAX TEMP:  81;

OMAHA NE       MOCLDY    73  58  59 S26       29.70F
6HR MIN TEMP:  73; 6HR MAX TEMP:  78; 6HR PCP: TRACE;

DES MOINES IA  MOCLDY    68  51  54 S16G26    29.85S
6HR MIN TEMP:  68; 6HR MAX TEMP:  76;

DAVENPORT IA   FAIR      70  44  39 S9        29.98F
6HR MIN TEMP:  69; 6HR MAX TEMP:  80;

CHICAGO IL     MOCLDY    70  50  49 S9        30.04S
6HR MIN TEMP:  70; 6HR MAX TEMP:  78;

EAU CLAIRE WI  FAIR      69  45  41 SE16      29.80F
6HR MIN TEMP:  69; 6HR MAX TEMP:  77;

LA CROSSE WI   FAIR      71  47  42 S12       29.85F
6HR MIN TEMP:  71; 6HR MAX TEMP:  78;

$$

  *****  SOME NATIONAL WEATHER *****

CITY           SKY/WX    TMP DP  RH WIND       PRES   REMARKS
LA GUARDIA NY  FAIR      70  39  32 NW10      30.15R
6HR MIN TEMP:  70; 6HR MAX TEMP:  74;

RALEIGH NC     FAIR      63  54  72 CALM      30.23R
6HR MIN TEMP:  63; 6HR MAX TEMP:  77;

ATLANTA GA     MOCLDY    69  44  40 CALM      30.20R
6HR MIN TEMP:  69; 6HR MAX TEMP:  80;

NEW ORLEANS LA CLOUDY    76  71  85 E13       30.05S
6HR MIN TEMP:  76; 6HR MAX TEMP:  82;

OKLAHOMA CITY  FAIR      74  62  66 S20G30    29.85S
6HR MIN TEMP:  73; 6HR MAX TEMP:  78;

ALBUQUERQUE NM FAIR      72  45  37 S22       29.81F
6HR MIN TEMP:  64; 6HR MAX TEMP:  74;

SALT LAKE CITY MOCLDY    50  33  52 CALM      29.88S
6HR MIN TEMP:  47; 6HR MAX TEMP:  62; 6HR PCP:  0.02;

LOS ANGELES CA FAIR      68  58  70 W14       29.88F
6HR MIN TEMP:  68; 6HR M



USA.gov is the U.S. government's official web portal to all federal, state and local government web resources and services.